This is the latest recevied weather packets stored in our database for station/object N3MFL. If no packets are shown the sender has not sent any weather packets the latest 10 day(s).
| Time | Temp. | Humidity | Pressure | Rain* | Wind** | Luminosity | Snow |
|---|---|---|---|---|---|---|---|
| 1778077132 | 18.89° C | 70% | 1012 hPa | 0 mm | - | 348 W/m² | - |
| 1778076830 | 18.33° C | 71% | 1011.8 hPa | 0 mm | - | 479 W/m² | - |
| 1778076528 | 18.33° C | 71% | 1011.6 hPa | 0 mm | - | 311 W/m² | - |
| 1778076224 | 18.33° C | 72% | 1011.6 hPa | 0 mm | - | 330 W/m² | - |
| 1778075922 | 18.33° C | 72% | 1011.5 hPa | 0 mm | - | 288 W/m² | - |
| 1778075618 | 18.33° C | 71% | 1011.9 hPa | 0 mm | - | 403 W/m² | - |
| 1778075314 | 18.89° C | 70% | 1011.9 hPa | 0 mm | - | 573 W/m² | - |
| 1778075011 | 18.33° C | 72% | 1011.9 hPa | 0 mm | - | 485 W/m² | - |
| 1778074708 | 18.89° C | 71% | 1012.1 hPa | 0 mm | - | 449 W/m² | - |
| 1778074405 | 17.78° C | 73% | 1012.4 hPa | 0 mm | - | 511 W/m² | - |
| 1778074102 | 17.78° C | 74% | 1012.4 hPa | 0 mm | - | 443 W/m² | - |
| 1778073799 | 17.78° C | 73% | 1012.2 hPa | 0 mm | - | 469 W/m² | - |
| 1778073497 | 17.22° C | 75% | 1012.4 hPa | 0 mm | - | 449 W/m² | - |
| 1778073193 | 17.22° C | 75% | 1012.3 hPa | 0 mm | - | 428 W/m² | - |
| 1778072890 | 17.22° C | 76% | 1012.2 hPa | 0 mm | - | 410 W/m² | - |
| 1778072586 | 16.67° C | 77% | 1012.3 hPa | 0 mm | - | 340 W/m² | - |
| 1778072284 | 16.67° C | 77% | 1012.5 hPa | 0 mm | - | 384 W/m² | - |
| 1778071982 | 16.11° C | 79% | 1012.2 hPa | 0 mm | - | 191 W/m² | - |
| 1778071681 | 16.11° C | 79% | 1012.2 hPa | 0 mm | - | 301 W/m² | - |
| 1778071377 | 16.11° C | 79% | 1012.2 hPa | 0 mm | - | 389 W/m² | - |
| 1778071075 | 15.56° C | 80% | 1012.2 hPa | 0 mm | - | 249 W/m² | - |
| 1778070774 | 16.11° C | 80% | 1012.2 hPa | 0 mm | - | 177 W/m² | - |
| 1778070470 | 16.11° C | 79% | 1012.2 hPa | 0 mm | - | 297 W/m² | - |
| 1778070167 | 16.11° C | 79% | 1011.9 hPa | 0 mm | - | 349 W/m² | - |
| 1778069865 | 15.56° C | 80% | 1012.2 hPa | 0 mm | - | 345 W/m² | - |
* Rain latest hour (hover to see other rain measurements)
** Current wind speed in m/s (hover to see current wind gust speed)